Regional Weather Roundup
Issued by NWS

Home | Current Version | Previous Version | Text Only | Print | Product List | Glossary On
Versions: 1 2 3 4 5 6 7 8 9 10 11 12 13 14 15 16 17 18 19 20 21 22 23 24 25 26 27 28 29 30 31 32 33 34 35 36 37 38 39 40 41 42 43 44 45 46 47 48 49
000
ASUS43 KDMX 311107
RWRIA

WEATHER ROUNDUP FOR IOWA
NATIONAL WEATHER SERVICE DES MOINES IA
600 AM CDT MON AUG 31 2015

NOTE: "FAIR" INDICATES FEW OR NO CLOUDS BELOW 12,000 FEET WITH NO
SIGNIFICANT WEATHER AND/OR OBSTRUCTIONS TO VISIBILITY.

* - THESE STATIONS ARE NOT NWS STATIONS...THUS NOT UNDER NWS
QUALITY CONTROL.  THEY ALSO DO NOT REPORT WEATHER SUCH
AS PRECIPITATION OR FOG.

IAZ001>003-012>014-020>022-031>034-043>046-311200-
   NORTHWEST IOWA

CITY           SKY/WX    TMP DP  RH WIND       PRES   REMARKS
CARROLL *      FOG       59  59 100 SE5       29.96F VSB<1/4
CHEROKEE *     CLEAR     63  63 100 S6        29.94F FOG
DENISON *      CLOUDY    66  64  94 SE5       29.94S FOG
LE MARS *      PTCLDY    66  66 100 S6        29.94R FOG
ORANGE CITY *    N/A     64  64 100 S3        29.93S FOG
SHELDON *      CLOUDY    64  64 100 S7        29.92S FOG
SPENCER        CLEAR     63  61  93 S7        29.95S FOG
STORM LAKE *   FOG       63  63 100 S8        29.96F VSB<1/4
$$

IAZ055>058-069>071-079>083-090>094-311200-
   SOUTHWEST IOWA

CITY           SKY/WX    TMP DP  RH WIND       PRES   REMARKS
ATLANTIC *     FOG       59  59 100 CALM      29.97R VSB<1/4
AUDUBON *      FOG       57  55  94 CALM      29.98S VSB 1/4
CLARINDA *     FOG       63  63 100 CALM      29.98S VSB<1/4
COUNCIL BLFS * FOG       64  64 100 SE7       29.96R VSB 1/4
CRESTON *      CLEAR     66  64  94 SE7       29.99S FOG
HARLAN  *      FOG       57 N/A N/A CALM      29.99S VSB<1/4
LAMONI         CLEAR     69  67  93 SE6       29.98S
RED OAK *      FOG       61  61 100 CALM      29.96S VSB<1/4
SHENANDOAH *   FOG       63  63 100 CALM      29.96S VSB 1/4
$$

IAZ047>049-059>061-072>074-084-311200-
   CENTRAL IOWA

CITY           SKY/WX    TMP DP  RH WIND       PRES   REMARKS
AMES           FOG       62  62 100 SE3       29.98F VSB 1/4
ANKENY *       FOG       63  63 100 CALM      29.98S VSB 1/4
CHARITON *     PTCLDY    66  66 100 SE6       29.99S FOG
DES MOINES     CLEAR     69  65  86 SE8       29.97S
GRINNELL*        N/A     63  62  97 SE5       30.01S FOG
KNOXVILLE *    CLEAR     64  64 100 E5        29.98S FOG
MARSHALLTOWN   FOG       60  59  96 SE8       29.99S VSB 1/4
PELLA *          N/A     64  64 100 E5        30.01R FOG
PERRY *        FOG       61  61  99 CALM      29.98S VSB 1/4
$$

IAZ004>006-015-016-023>025-035-036-311200-
   NORTH CENTRAL IOWA

CITY           SKY/WX    TMP DP  RH WIND       PRES   REMARKS
ALGONA *       FOG       64  64 100 S8        29.97F VSB 1/4
CLARION *      CLOUDY    63  63 100 SE5       29.98S FOG
ESTHERVILLE    CLOUDY    62  62 100 S8        29.95S FOG
FORT DODGE *     N/A     61  57  88 CALM      29.98S VSB 1/2
MASON CITY     FOG       61  61 100 S7        30.01S VSB 1/4
FOREST CITY *  FOG       63  63 100 S5        29.99S VSB 1/4
IOWA FALLS *   FOG       60  60  98 CALM      30.01S VSB 1/4
$$

IAZ007>011-017>019-026>030-037>042-050>054-066-311200-
   NORTHEAST IOWA

CITY           SKY/WX    TMP DP  RH WIND       PRES   REMARKS
CEDAR RAPIDS   CLEAR     60  60 100 E5        30.02R FOG
CHARLES CITY * FOG       63  63 100 S5        30.01S VSB<1/4
CLINTON *        N/A     57  57 100 E7        30.05S VSB 1/4
DECORAH *      CLOUDY    61  61 100 S5        30.01S FOG
DUBUQUE        CLEAR     58  57  97 S6        30.04S FOG
MONTICELLO *   FOG       55  55 100 CALM      30.03S VSB 1/4
OELWEIN *      FOG       61  61 100 SE6       30.03R VSB 1/4
WATERLOO       CLEAR     59  58  96 SE5       30.00S FOG
$$

IAZ064-065-067-068-078-311200-
   EAST CENTRAL IOWA

CITY           SKY/WX    TMP DP  RH WIND       PRES   REMARKS
DAVENPORT      CLEAR     62  61  96 E5        30.03S FOG
IOWA CITY      MOCLDY    61  60  97 CALM      30.03R FOG
MT. PLEASANT * CLEAR     66  63  90 CALM      30.02R FOG
MUSCATINE *    PTCLDY    61  59  94 CALM      30.02S FOG
QUAD CITIES    CLEAR     60  58  92 E5        30.03R FOG
$$

IAZ062-063-075>077-085>089-095>099-311200-
   SOUTHEAST IOWA

CITY           SKY/WX    TMP DP  RH WIND       PRES   REMARKS
BURLINGTON     CLEAR     66  66 100 CALM      30.02R FOG
FAIRFIELD *    CLEAR     63  63 100 SE5       30.01S FOG
FORT MADISON * FOG       64  64 100 CALM      30.02S VSB 1/2
KEOKUK *       CLEAR     66  66 100 E5        30.01R FOG
OSKALOOSA *      N/A     63  62  97 SE3       30.01S FOG
CENTERVILLE *    N/A     64  64 100 E3        30.01S
OTTUMWA        PTCLDY    63  63 100 SE6       29.99R FOG
WASHINGTON *     N/A    N/A N/A N/A MISG        N/A
$$

ABBREVIATIONS USED IN REMARKS
   TC - TEMPERATURES IN CELSIUS
  WCI - WIND CHILL INDEX
   HX - HEAT INDEX
  VSB - VISIBILITY
$$




USA.gov is the U.S. government's official web portal to all federal, state and local government web resources and services.